Regional Weather Roundup
Issued by NWS

Home | Current Version | Previous Version | Graphics & Text | Print | Product List | Glossary Off
Versions: 1 2 3 4 5 6 7 8 9 10 11 12 13 14 15 16 17 18 19 20 21 22 23 24 25 26 27 28 29 30 31 32 33 34 35 36 37 38 39 40 41 42 43 44 45 46 47 48 49 50

000
ASUS43 KDMX 010707
RWRIA

WEATHER ROUNDUP FOR IOWA
NATIONAL WEATHER SERVICE DES MOINES IA
200 AM CDT WED JUL 01 2015

NOTE: "FAIR" INDICATES FEW OR NO CLOUDS BELOW 12,000 FEET WITH NO
SIGNIFICANT WEATHER AND/OR OBSTRUCTIONS TO VISIBILITY.

* - THESE STATIONS ARE NOT NWS STATIONS...THUS NOT UNDER NWS
QUALITY CONTROL.  THEY ALSO DO NOT REPORT WEATHER SUCH
AS PRECIPITATION OR FOG.

IAZ001>003-012>014-020>022-031>034-043>046-010800-
   NORTHWEST IOWA

CITY           SKY/WX    TMP DP  RH WIND       PRES   REMARKS
CARROLL *      PTCLDY    66  64  94 SE6       29.91S
CHEROKEE *     CLEAR     64  64 100 CALM      29.93R
DENISON *      PTCLDY    66  66 100 CALM      29.89F FOG
LE MARS *        N/A     68  68 100 CALM      29.92S
ORANGE CITY *  CLEAR     63  61  94 SE3       29.92S
SHELDON *      CLOUDY    63  63 100 SE5       29.92R
SIOUX CITY     MOCLDY    67  64  90 CALM      29.88F FOG
SPENCER        PTCLDY    63  60  90 E5        29.93R
STORM LAKE *   CLEAR     64  63  94 SE6       29.94R
$$

IAZ055>058-069>071-079>083-090>094-010800-
   SOUTHWEST IOWA

CITY           SKY/WX    TMP DP  RH WIND       PRES   REMARKS
ATLANTIC *     CLEAR     66  66 100 S8        29.91F
AUDUBON *        N/A     66  63  88 CALM      29.92F FOG
CLARINDA *     RAIN      68  68 100 CALM      29.95S
COUNCIL BLFS * CLOUDY    68  66  94 SE9       29.90F
CRESTON *      CLOUDY    68  66  94 SW8       29.93F
HARLAN  *      CLEAR     68  68 100 SW7G14    29.94S
LAMONI         CLOUDY    69  67  93 CALM      29.94R
RED OAK *      LGT RAIN  68  68 100 CALM      29.92F
SHENANDOAH *   LGT RAIN  70  68  94 SE7       29.93F
$$

IAZ047>049-059>061-072>074-084-010800-
   CENTRAL IOWA

CITY           SKY/WX    TMP DP  RH WIND       PRES   REMARKS
AMES           MOCLDY    66  62  87 E3        29.92S
ANKENY *       PTCLDY    68  64  88 E7        29.91F
CHARITON *     CLOUDY    70  68  94 CALM      29.92R
DES MOINES     CLOUDY    72  64  76 E7        29.91S
GRINNELL*      MOCLDY    64  63  94 E3        29.94S
KNOXVILLE *    MOCLDY    70  64  83 E7        29.90F
MARSHALLTOWN   CLOUDY    66  62  87 E3        29.93R
PELLA *        MOCLDY    68  66  94 E5        29.92F
PERRY *          N/A     66  64  94 E3        29.91F
$$

IAZ004>006-015-016-023>025-035-036-010800-
   NORTH CENTRAL IOWA

CITY           SKY/WX    TMP DP  RH WIND       PRES   REMARKS
ALGONA *       CLOUDY    64  61  88 SE6       29.94R
CLARION *      CLOUDY    64  61  88 E6        29.94R
ESTHERVILLE    MOCLDY    61  59  93 E7        29.93S
FORT DODGE *   CLEAR     63  59  88 E6        29.94R
MASON CITY     PTCLDY    61  57  87 E6        29.96S
FOREST CITY *  CLEAR     59  55  88 E3        29.95R
IOWA FALLS *     N/A     64  61  88 CALM      29.95R
$$

IAZ007>011-017>019-026>030-037>042-050>054-066-010800-
   NORTHEAST IOWA

CITY           SKY/WX    TMP DP  RH WIND       PRES   REMARKS
CEDAR RAPIDS   MOCLDY    66  61  84 NE8       29.92S
CHARLES CITY * CLEAR     61  59  94 NE6       29.96R
CLINTON *      MOCLDY    61  57  88 N7        29.93S
DECORAH *        N/A    N/A N/A N/A MISG        N/A
DUBUQUE        PTCLDY    59  55  87 NE8       29.93S
MONTICELLO *   CLEAR     59 N/A N/A CALM      29.92S
OELWEIN *        N/A    N/A N/A N/A NE6       29.95R
WATERLOO       PTCLDY    61  57  87 CALM      29.94R
$$

IAZ064-065-067-068-078-010800-
   EAST CENTRAL IOWA

CITY           SKY/WX    TMP DP  RH WIND       PRES   REMARKS
DAVENPORT      MOCLDY    64  61  90 CALM      29.91S
IOWA CITY      MOCLDY    67  60  78 NE5       29.92S
MT. PLEASANT * CLOUDY    70  66  88 N5        29.91R
MUSCATINE *    MOCLDY    68  63  83 CALM      29.91S
QUAD CITIES    CLOUDY    68  62  81 CALM      29.90R
$$

IAZ062-063-075>077-085>089-095>099-010800-
   SOUTHEAST IOWA

CITY           SKY/WX    TMP DP  RH WIND       PRES   REMARKS
BURLINGTON     CLOUDY    70  65  84 E7        29.90R
FAIRFIELD *    CLOUDY    68  64  88 NE6       29.92R
FORT MADISON * CLEAR     70  70 100 CALM      29.91R
KEOKUK *       MOCLDY    70  68  94 CALM      29.90R
OSKALOOSA *      N/A     66  64  94 CALM      29.92S
CENTERVILLE *  CLOUDY    70  68  94 SW3       29.93R
OTTUMWA        CLOUDY    68  65  90 E8        29.90R
WASHINGTON *   CLEAR     66  64  94 NE5       29.93R
$$

ABBREVIATIONS USED IN REMARKS
   TC - TEMPERATURES IN CELSIUS
  WCI - WIND CHILL INDEX
   HX - HEAT INDEX
  VSB - VISIBILITY
$$




USA.gov is the U.S. government's official web portal to all federal, state and local government web resources and services.